Regional Weather Roundup
Issued by NWS

Home | Current Version | Previous Version | Text Only | Print | Product List | Glossary On
Versions: 1 2 3 4 5 6 7 8 9 10 11 12 13 14 15 16 17 18 19 20 21 22 23 24 25 26 27 28 29 30 31 32 33 34 35 36 37 38 39 40 41 42 43 44 45 46 47 48 49 50
000
ASUS45 KBOI 160310
RWRID
WEATHER ROUNDUP FOR IDAHO
NATIONAL WEATHER SERVICE BOISE ID
900 PM MDT MON SEP 15 2014

NOTE: "FAIR" INDICATES FEW OR NO CLOUDS BELOW 12000 FEET
WITH NO SIGNIFICANT WEATHER AND/OR OBSTRUCTIONS TO VISIBILITY

IDZ012-014-160400-
SOUTHWEST IDAHO


CITY           SKY/WX    TMP DP  RH WIND       PRES   REMARKS
BOISE          PTCLDY    77  36  22 S5        29.92R
CALDWELL       PTCLDY    75  39  27 CALM      29.92R
MOUNTAIN HOME  PTCLDY    77  36  22 CALM      29.93R
$$

IDZ016-017-160400-
SOUTHCENTRAL IDAHO


CITY           SKY/WX    TMP DP  RH WIND       PRES   REMARKS
BURLEY         CLEAR     66  49  54 SE3       30.04R
JEROME         CLEAR     67  39  35 E7        30.03R
TWIN FALLS     CLEAR     67  41  38 SE8       30.04R
$$

IDZ019>023-160400-
SOUTHEAST IDAHO


CITY           SKY/WX    TMP DP  RH WIND       PRES   REMARKS
IDAHO FALLS    PTCLDY    61  38  42 CALM      30.09S
POCATELLO      CLEAR     67  30  25 S8        30.08R
REXBURG        PTCLDY    68  36  30 SE5       30.10R
$$

IDZ006-010-011-018-031-032-160400-
CENTRAL IDAHO MOUNTAINS


CITY           SKY/WX    TMP DP  RH WIND       PRES   REMARKS
MCCALL         PTCLDY    64  36  35 CALM      30.07S
HAILEY         PTCLDY    70  39  32 SW5       30.13R
STANLEY          N/A     55  29  36 S6        30.21R
SALMON         PTCLDY    64  34  32 SE5       30.02R
CHALLIS        MOCLDY    73  30  20 W10       30.09R
$$

IDZ002-004-006-007-026-160400-
NORTHERN IDAHO


CITY           SKY/WX    TMP DP  RH WIND       PRES   REMARKS
LEWISTON       MOCLDY    77  30  17 S6        29.84R
LOWELL           N/A     61  52  72 N3        29.90R
COEUR D`ALENE  CLEAR     63  36  36 NE7       29.93R
MULLAN PASS    CLEAR     64  21  19 CALM      30.15R
$$


USA.gov is the U.S. government's official web portal to all federal, state and local government web resources and services.